CZ-6A DEB, 56630

Orbit data source: Space-Track

CZ-6A DEB, 56630 is space debris in SSO originally from a launch on Fri, 11 Nov 2022 UTC launched from the Taiyaun Space Center, China (TSC). Debris objects in space refer to the collection of defunct objects orbiting the Earth. Examples of debris include non-operational satellites, rocket bodies, and fragments generated from explosions, collisions, or faulty payload assembly.

Loading next visibility...
Identifier
56630, 2022-151AFE
Orbit
SSO
Country
Flag of CNCN / PRC
Related business
Manufacturer
SAST
Mission
Spacecraft
Bus & Motor
Unknown
Mass
Unknown
Launch date (UTC)
2022-11-11 (3 years ago)
Launch vehicle
Unknown
Launch site
Taiyaun Space Center, China (TSC)
Object type
Payload
Rocket body
Debris
Shape & HBR
Unknown shape, 0.1 m
Radar Cross Section
Small (<0.1 m²)

Expand to show TLE details & history
Last TLE update: 5 days ago

TLE from 5 days ago
0 CZ-6A DEB
1 56630U 22151AFE 25346.27714153  .00002792  00000-0  15086-2 0  9993
2 56630  98.8381 344.4127 0053233 148.7667 211.6687 14.12696742135551
Epoch: 2025-12-12T06:39Z
TLE epoch observation values (Epoch: 2025-12-12T06:39:05.028Z)
Latitude
0.00005°
Longitude
163.42067°
Altitude
885.87 km
Speed
7.392 km/s
True Right ascension
22h 57m 39s
True Declination
0° 00' 00"
Sunlit
Object was in daylight at epoch
Visualization orbit readout
Latitude
Unknown
Longitude
Unknown
Altitude
Unknown
Speed
Unknown
Apparent Right ascension
Unknown
Apparent Declination
Unknown
Sunlit
N/A
Visualization observer readout
Local Sidereal Time
23:45:24
Azimuth
Unknown
Elevation
Unknown
Doppler factor
Unknown
Orbital elements
Apogee altitude
885.796 km
Perigee altitude
808.869 km
Semi-major axis
7,225.47 km
Eccentricity
0.00532
Inclination
98.8381°
RAAN
344.4127°
Arg. of periapsis
148.7667°
True anomaly
211.35025°
Mean anomaly
211.6687°
Eccentric anomaly
211.50929°
Mean motion
3.53382 °/min
Orbital period
101.87 mins
BSTAR
0.0015086
Loading maneuver chart data...
Computing Atmospheric mass density...
Loading historical data...
Loading historical data...
Loading historical data...
Loading historical data...
Loading historical data...
Loading historical data...
Loading historical data...

Documentation

Showing up to 5 results
|